Location: Unspecified
(0.0000°N, 0.0000°E)
Time: 15:26:18
(UTC+00:00)

CUTE-I - Pass Details

Date: 31 May 2019
Orbit: 810 x 825 km, 98.7° (Epoch: 19 June)

Event Time Altitude Azimuth Distance (km) Brightness Sun altitude
Rises 18:39:40 0° 188° (S) 3,352 ? -9.7°
Reaches altitude 10° 18:42:19 10° 199° (SSW) 2,415 ? -10.3°
Maximum altitude 18:46:51 29° 257° (WSW) 1,470 ? -11.4°
Drops below altitude 10° 18:51:22 10° 316° (NW) 2,398 ? -12.4°
Sets 18:53:59 0° 327° (NNW) 3,325 ? -13.0°
